Header for Extended Forecast Station List Page

Search by: ID | Name | Date | Parm | Value | Avg | % Avg
Sort by: ID | Name | Date | Parm | Value | Avg | % Avg

Enter search or view all records.

Click on id for station plot
#IDNameDateParmValueAvg% Avg
0LEOI1KOOTENAI-AT LEONIA07-06-2020DISCHARGE (KAF)2571264597
1FCFM8NF FLATHEAD-NEAR COLUMBIA FALLS07-06-2020DISCHARGE (KAF)39044188
2WGCM8MF FLATHEAD-NEAR WEST GLACIER07-06-2020DISCHARGE (KAF)438384114
3CFMM8FLATHEAD-AT COLUMBIA FALLS07-06-2020DISCHARGE (KAF)15171496101
4DLGM8CLARK FORK-AT DEER LODGE07-06-2020DISCHARGE (KAF)8743203
5DRMM8CLARK FORK-NR DRUMMOND07-06-2020DISCHARGE (KAF)204MM
6RCCM8ROCK CREEK-NEAR CLINTON07-06-2020DISCHARGE (KAF)11085129
7BONM8BLACKFOOT-NEAR BONNER07-06-2020DISCHARGE (KAF)240224107
8ABOM8CLARK FORK-ABOVE MISSOULA07-06-2020DISCHARGE (KAF)583457127
9BITM8BITTERROOT-NEAR MISSOULA07-06-2020DISCHARGE (KAF)302299101
10BELM8CLARK FORK-BELOW MISSOULA07-06-2020DISCHARGE (KAF)884767115
11STRM8ST. REGIS-NEAR ST. REGIS07-06-2020DISCHARGE (KAF)373799
12SRGM8CLARK FORK-AT ST REGIS07-06-2020DISCHARGE (KAF)10771004107
13PRTI1PRIEST-NEAR PRIEST RIVER07-06-2020DISCHARGE (KAF)203164124
14SPOW1SPOKANE-AT SPOKANE07-06-2020DISCHARGE (KAF)413MM
15SATI1ST MARIES-NEAR SANTA07-06-2020DISCHARGE (KAF)171989
16CIBW1COLUMBIA-AT INTL BOUNDARY07-06-2020DISCHARGE (KAF)24312MM
17LAUW1KETTLE-AT LAURIER07-06-2020DISCHARGE (KAF)23323798
18TONW1OKANOGAN-NEAR TONASKET07-06-2020DISCHARGE (KAF)453393115
19PATW1METHOW-NEAR PATEROS07-06-2020DISCHARGE (KAF)14519375
20ARDW1ENTIAT-NEAR ARDENVOIR07-06-2020DISCHARGE (KAF)315162
21PESW1WENATCHEE-AT PESHASTIN07-06-2020DISCHARGE (KAF)26540166
22EASW1YAKIMA-AT EASTON07-06-2020DISCHARGE (KAF)667588
23TNAW1TEANAWAY-BELOW FORKS07-06-2020DISCHARGE (KAF)7979
24UMTW1YAKIMA-AT UMTANUM07-06-2020DISCHARGE (KAF)59161097
25CLFW1NACHES-NEAR CLIFFDEL07-06-2020DISCHARGE (KAF)8110081
26NACW1NACHES-NEAR NACHES07-06-2020DISCHARGE (KAF)11615475
27PARW1YAKIMA-NEAR PARKER07-06-2020DISCHARGE (KAF)9413072
28KIOW1YAKIMA-AT KIONA07-06-2020DISCHARGE (KAF)38944188
29CHEI1FALL RIVER-NEAR CHESTER07-06-2020DISCHARGE (KAF)7877101
30ANTI1HENRYS FORK-AT ST. ANTHONY07-06-2020DISCHARGE (KAF)328314105
31TEAI1TETON-NEAR ST. ANTHONY07-06-2020DISCHARGE (KAF)197188105
32REXI1HENRYS FORK-AT REXBURG07-06-2020DISCHARGE (KAF)400362110
33JKSW4SNAKE-NEAR JACKSON07-06-2020DISCHARGE (KAF)87296291
34ALPW4SNAKE-NEAR ALPINE07-06-2020DISCHARGE (KAF)1047116790
35HEII1SNAKE-NEAR HEISE07-06-2020DISCHARGE (KAF)1879195996
36SIFI1SNAKE-AB EAGLE ROCK NR IDAHO FALLS07-06-2020DISCHARGE (KAF)13221316100
37SHYI1SNAKE-NEAR SHELLEY07-06-2020DISCHARGE (KAF)11851022116
38SNAI1SNAKE-AT BLACKFOOT07-06-2020DISCHARGE (KAF)743590126
39BFTI1SNAKE-NEAR BLACKFOOT07-06-2020DISCHARGE (KAF)738555133
40PIHI1PORTNEUF-AT POCATELLO07-06-2020DISCHARGE (KAF)232591
41MILI1SNAKE-AT MILNER07-06-2020DISCHARGE (KAF)1037112929
42HOTI1BRUNEAU-NEAR HOT SPRINGS07-06-2020DISCHARGE (KAF)2826105
43SWAI1SNAKE-BELOW SWAN FALLS07-06-2020DISCHARGE (KAF)26812004134
44HWRI1BIG LOST-AT HOWELL RANCH NEAR CHILLY07-06-2020DISCHARGE (KAF)275748
45HALI1BIG WOOD-AT HAILEY07-06-2020DISCHARGE (KAF)497664
46BIGI1BOISE-AT GLENWOOD BRIDGE07-06-2020DISCHARGE (KAF)12818271
47PARI1BOISE-NEAR PARMA07-06-2020DISCHARGE (KAF)17322278
48EMMI1PAYETTE-NEAR EMMETT07-06-2020DISCHARGE (KAF)40543693
49WSRI1WEISER-NEAR WEISER07-06-2020DISCHARGE (KAF)545696
50WEII1SNAKE-AT WEISER07-06-2020DISCHARGE (KAF)37492955127
51WHBI1SALMON-AT WHITEBIRD07-06-2020DISCHARGE (KAF)15841559102
52TRYO3GRANDE RONDE-TROY07-06-2020DISCHARGE (KAF)316241131
53ANAW1SNAKE-NEAR ANATONE07-06-2020DISCHARGE (KAF)61534972124
54ORFI1CLEARWATER-AT OROFINO07-06-2020DISCHARGE (KAF)60767490
55SPDI1CLEARWATER-AT SPALDING07-06-2020DISCHARGE (KAF)22561268178
56TCHW1WALLA WALLA-NEAR TOUCHET07-06-2020DISCHARGE (KAF)108116
57GIBO3UMATILLA-NEAR GIBBON07-06-2020DISCHARGE (KAF)121299
58PDTO3UMATILLA-AT PENDLETON07-06-2020DISCHARGE (KAF)121297
59MYKO3MCKAY CREEK-NEAR PILOT ROCK07-06-2020DISCHARGE (KAF)0098
60UMAO3UMATILLA-NEAR UMATILLA07-06-2020DISCHARGE (KAF)347463
61MONO3NF JOHN DAY-AT MONUMENT07-06-2020DISCHARGE (KAF)4643106
62SERO3JOHN DAY-AT SERVICE CK07-06-2020DISCHARGE (KAF)6867102
63MODO3DESCHUTES-AT MOODY NR BIGGS07-06-2020DISCHARGE (KAF)1044109495
64PITW1KLICKITAT-NEAR PITT07-06-2020DISCHARGE (KAF)17420385
65HODO3HOOD-NEAR TUCKER BRIDGE07-06-2020DISCHARGE (KAF)819288
66UNDW1WHITE SALMON-NEAR UNDERWOOD07-06-2020DISCHARGE (KAF)14316587
67LYDM8KOOTENAI-LIBBY DAM07-06-2020INFLOW (KAF)2323243895
68HHWM8SF FLATHEAD-HUNGRY HORSE DAM07-06-2020INFLOW (KAF)34935499
69KERM8FLATHEAD-KERR DAM07-06-2020INFLOW (KAF)1715178796
70NOXM8CLARK FORK-NOXON RAPIDS DAM07-06-2020INFLOW (KAF)35993395106
71CABI1CLARK FORK-CABINET GORGE DAM07-06-2020INFLOW (KAF)39753640109
72ALFW1PEND OREILLE-ALBENI FALLS DAM07-06-2020INFLOW (KAF)40383900104
73COEI1COEUR D ALENE-COEUR D ALENE LAKE07-06-2020INFLOW (KAF)253247103
74LLKW1SPOKANE-AT LONGLAKE07-06-2020INFLOW (KAF)59461597
75GCDW1COLUMBIA-GRAND COULEE DAM07-06-2020INFLOW (KAF)2524024626102
76CHJW1COLUMBIA-CHIEF JOSEPH DAM07-06-2020INFLOW (KAF)2408722402108
77WELW1COLUMBIA-WELLS DAM07-06-2020INFLOW (KAF)2471622970108
78CHDW1CHELAN-LAKE CHELAN DAM07-06-2020INFLOW (KAF)18934355
79RRHW1COLUMBIA-ROCKY REACH DAM07-06-2020INFLOW (KAF)2546523521108
80WANW1COLUMBIA-WANAPUM DAM07-06-2020INFLOW (KAF)2584225161103
81PRWW1COLUMBIA-PRIEST RAPIDS DAM07-06-2020INFLOW (KAF)2584125631101
82KEDW1YAKIMA-KEECHELUS LAKE07-06-2020INFLOW (KAF)242594
83KADW1KACHESS-KACHESS DAM07-06-2020INFLOW (KAF)141786
84CLUW1CLE ELUM-CLE ELUM LAKE07-06-2020INFLOW (KAF)519355
85BUDW1BUMPING-BUMPING LAKE DAM07-06-2020INFLOW (KAF)182767
86RILW1TIETON-RIMROCK LAKE NEAR RIMROCK07-06-2020INFLOW (KAF)747994
87IPDI1HENRYS FORK-ISLAND PARK DAM07-06-2020INFLOW (KAF)13715190
88JLKW4SNAKE-JACKSON LAKE AT DAM07-06-2020INFLOW (KAF)18722982
89PLDI1SF SNAKE-PALISADES DAM07-06-2020INFLOW (KAF)1446158091
90RIDI1WILLOW CREEK-RIRIE DAM07-06-2020INFLOW (KAF)85149
91AFRI1SNAKE-AMERICAN FALLS RESERVOIR07-06-2020INFLOW (KAF)13221209109
92MACI1BIG LOST-MACKAY RESERVOIR NEAR MACKAY07-06-2020INFLOW (KAF)364483
93MAGI1BIG WOOD-MAGIC DAM07-06-2020INFLOW (KAF)183749
94LWRI1LITTLE WOOD-LITTLE WOOD DAM07-06-2020INFLOW (KAF)61736
95OWYO3OWYHEE-OWYHEE DAM07-06-2020INFLOW (KAF)5751111
96ARAI1SF BOISE-ANDERSON RANCH DAM07-06-2020INFLOW (KAF)539258
97LUCI1BOISE-LUCKY PEAK DAM07-06-2020INFLOW (KAF)446MM
98WRMO3MALHEUR-WARM SPRINGS DAM07-06-2020INFLOW (KAF)43151
99BERO3MALHEUR-AGENCY VALLEY DAM07-06-2020INFLOW (KAF)87122
100BULO3BULLY CREEK-BULLY CREEK DAM07-06-2020INFLOW (KAF)M0M
101CSDI1NF PAYETTE-CASCADE DAM07-06-2020INFLOW (KAF)7668112
102DEDI1DEADWOOD-NEAR LOWMAN07-06-2020INFLOW (KAF)162662
103BRNI1SNAKE-BROWNLEE DAM07-06-2020INFLOW (KAF)38883006129
104DWRI1NF CLEARWATER-DWORSHAK DAM07-06-2020INFLOW (KAF)33343676
105LGDW1SNAKE-LOWER GRANITE DAM07-06-2020INFLOW (KAF)84086313133
106LGSW1SNAKE-LITTLE GOOSE DAM07-06-2020INFLOW (KAF)83916338132
107LMNW1SNAKE-LOWER MONUMENTAL DAM07-06-2020INFLOW (KAF)84036371132
108IHDW1SNAKE-ICE HARBOR DAM07-06-2020INFLOW (KAF)84256283134
109MCDW1COLUMBIA-MCNARY DAM07-06-2020INFLOW (KAF)3482832945106
110JDAO3COLUMBIA-JOHN DAY DAM07-06-2020INFLOW (KAF)3530933458106
111TDAO3COLUMBIA-THE DALLES DAM07-06-2020INFLOW (KAF)3569732689109
112BONO3COLUMBIA-BONNEVILLE DAM07-06-2020INFLOW (KAF)3607833711107
113HOPI1PEND OREILLE-PEND OREILLE LAKE NR HOPE07-06-2020LAKE ELEVATION (FT)MMM
114BFEI1KOOTENAI-AT BONNERS FERRY07-06-2020STAGE (FT)MMM
115SJMI1ST JOE-AT ST MARIES07-06-2020STAGE (FT)MMM